PSERI SBSG-GVAC

Flight info

Callsign PSERI
Flight time 3h 21m
Altitude 41000
Route ILMIG DCT FNR DCT OBKAD DCT BODAK DCT RAKUD DCT IRAKU DCT MOGNI DCT ODMEN DCT SNT AMDER1F
Aircraft C700/M-SBDGHM1RWXY/LB2

Departure

Time 2026-05-04 13:17
Airport Rio Grande do Norte/São Gonçalo do Amarante–Governador Aluízio Alves International Airport (SBSG)

Arrival

Time 2026-05-04 16:39
Airport Amílcar Cabral International Airport (GVAC)
Time Latitude Longitude Altitude Speed Heading
2026-05-04 13:07 -5.76408 -35.37509 268 ft 0 kts
2026-05-04 13:13 -5.76407 -35.37507 268 ft 1 kts 37°
2026-05-04 13:13 -5.76422 -35.37490 268 ft 9 kts 138°
2026-05-04 13:14 -5.76489 -35.37429 268 ft 17 kts 129°
2026-05-04 13:14 -5.76516 -35.37295 268 ft 23 kts 99°
2026-05-04 13:14 -5.76591 -35.37244 268 ft 14 kts 188°
2026-05-04 13:14 -5.76694 -35.37277 268 ft 18 kts 237°
2026-05-04 13:15 -5.76683 -35.37415 267 ft 22 kts 277°
2026-05-04 13:15 -5.76656 -35.37572 268 ft 23 kts 280°
2026-05-04 13:15 -5.76627 -35.37736 268 ft 24 kts 281°
2026-05-04 13:15 -5.76601 -35.37909 268 ft 25 kts 269°
2026-05-04 13:16 -5.76666 -35.37970 268 ft 14 kts 189°
2026-05-04 13:16 -5.76763 -35.37951 268 ft 10 kts 111°
2026-05-04 13:16 -5.76822 -35.37620 267 ft 91 kts 100°
2026-05-04 13:16 -5.76968 -35.36721 285 ft 167 kts 103°
2026-05-04 13:17 -5.77205 -35.35329 377 ft 232 kts 101°
2026-05-04 13:17 -5.77415 -35.33961 2571 ft 179 kts 103°
2026-05-04 13:17 -5.77520 -35.32618 3666 ft 202 kts 90°
2026-05-04 13:17 -5.77090 -35.31246 4844 ft 216 kts 60°
2026-05-04 13:18 -5.76175 -35.29956 5773 ft 239 kts 59°
2026-05-04 13:18 -5.75209 -35.28493 6442 ft 264 kts 60°
2026-05-04 13:18 -5.74181 -35.26924 6878 ft 272 kts 59°
2026-05-04 13:18 -5.73123 -35.25331 7492 ft 274 kts 59°
2026-05-04 13:19 -5.72062 -35.23736 8699 ft 273 kts 58°
2026-05-04 13:19 -5.71011 -35.22142 10023 ft 278 kts 58°
2026-05-04 13:19 -5.69913 -35.20471 10727 ft 303 kts 58°
2026-05-04 13:19 -5.68727 -35.18669 11926 ft 307 kts 58°
2026-05-04 13:20 -5.67531 -35.16868 13137 ft 313 kts 57°
2026-05-04 13:20 -5.66318 -35.15029 14254 ft 319 kts 57°
2026-05-04 13:20 -5.65104 -35.13175 15246 ft 325 kts 57°
2026-05-04 13:20 -5.63842 -35.11270 16235 ft 331 kts 57°
2026-05-04 13:21 -5.62538 -35.09300 17233 ft 337 kts 57°
2026-05-04 13:21 -5.61248 -35.07345 18199 ft 343 kts 57°
2026-05-04 13:21 -5.59919 -35.05332 19050 ft 349 kts 57°
2026-05-04 13:21 -5.58570 -35.03290 19907 ft 353 kts 57°
2026-05-04 13:22 -5.57202 -35.01220 20738 ft 358 kts 57°
2026-05-04 13:22 -5.55817 -34.99121 21546 ft 363 kts 57°
2026-05-04 13:22 -5.54412 -34.96993 22363 ft 368 kts 57°
2026-05-04 13:22 -5.52987 -34.94841 23160 ft 373 kts 57°
2026-05-04 13:23 -5.51543 -34.92655 23857 ft 379 kts 57°
2026-05-04 13:23 -5.50078 -34.90435 24485 ft 384 kts 57°
2026-05-04 13:23 -5.48590 -34.88190 25100 ft 389 kts 57°
2026-05-04 13:23 -5.47086 -34.85909 25654 ft 396 kts 57°
2026-05-04 13:24 -5.45551 -34.83582 26217 ft 403 kts 57°
2026-05-04 13:24 -5.43987 -34.81227 26769 ft 409 kts 57°
2026-05-04 13:24 -5.42401 -34.78826 27310 ft 416 kts 57°
2026-05-04 13:25 -5.39154 -34.73921 28378 ft 428 kts 57°
2026-05-04 13:25 -5.37504 -34.71413 28886 ft 434 kts 57°
2026-05-04 13:25 -5.35812 -34.68872 29389 ft 441 kts 57°
2026-05-04 13:25 -5.34109 -34.66296 29901 ft 446 kts 57°
2026-05-04 13:26 -5.32390 -34.63684 30394 ft 451 kts 57°
2026-05-04 13:26 -5.30654 -34.61051 30879 ft 454 kts 57°
2026-05-04 13:26 -5.28884 -34.58407 31363 ft 458 kts 56°
2026-05-04 13:26 -5.27106 -34.55739 31833 ft 462 kts 57°
2026-05-04 13:27 -5.25343 -34.53036 32301 ft 465 kts 57°
2026-05-04 13:27 -5.23550 -34.50319 32757 ft 468 kts 56°
2026-05-04 13:27 -5.21729 -34.47595 33187 ft 472 kts 56°
2026-05-04 13:27 -5.19905 -34.44845 33632 ft 475 kts 56°
2026-05-04 13:28 -5.18079 -34.42072 34036 ft 478 kts 56°
2026-05-04 13:28 -5.16235 -34.39283 34406 ft 481 kts 56°
2026-05-04 13:28 -5.14375 -34.36485 34799 ft 483 kts 56°
2026-05-04 13:28 -5.12533 -34.33709 35155 ft 486 kts 56°
2026-05-04 13:29 -5.10659 -34.30876 35550 ft 489 kts 56°
2026-05-04 13:29 -5.08772 -34.28026 35937 ft 491 kts 56°
2026-05-04 13:29 -5.06877 -34.25168 36312 ft 494 kts 56°
2026-05-04 13:29 -5.04968 -34.22292 36676 ft 497 kts 56°
2026-05-04 13:30 -5.03048 -34.19394 37028 ft 499 kts 56°
2026-05-04 13:30 -5.01121 -34.16487 37375 ft 502 kts 56°
2026-05-04 13:30 -4.99185 -34.13567 37681 ft 504 kts 56°
2026-05-04 13:30 -4.97235 -34.10629 37985 ft 507 kts 56°
2026-05-04 13:31 -4.95279 -34.07681 38264 ft 509 kts 56°
2026-05-04 13:31 -4.93318 -34.04723 38506 ft 511 kts 56°
2026-05-04 13:31 -4.91346 -34.01751 38696 ft 513 kts 56°
2026-05-04 13:31 -4.89370 -33.98775 38779 ft 512 kts 56°
2026-05-04 13:32 -4.85439 -33.92850 38778 ft 510 kts 56°
2026-05-04 13:32 -4.81509 -33.86932 38777 ft 510 kts 56°
2026-05-04 13:33 -4.77580 -33.81013 38775 ft 509 kts 56°
2026-05-04 13:33 -4.73651 -33.75099 38775 ft 509 kts 56°
2026-05-04 13:34 -4.69725 -33.69189 38773 ft 509 kts 56°
2026-05-04 13:34 -4.65798 -33.63281 38766 ft 509 kts 56°
2026-05-04 13:35 -4.59906 -33.54417 38769 ft 509 kts 56°
2026-05-04 13:36 -4.55979 -33.48510 38771 ft 509 kts 56°
2026-05-04 13:36 -4.52053 -33.42607 38772 ft 509 kts 56°
2026-05-04 13:37 -4.48122 -33.36698 38773 ft 509 kts 56°
2026-05-04 13:37 -4.44220 -33.30834 38771 ft 509 kts 56°
2026-05-04 13:38 -4.40294 -33.24935 38772 ft 509 kts 56°
2026-05-04 13:38 -4.36370 -33.19040 38775 ft 508 kts 56°
2026-05-04 13:39 -4.32447 -33.13147 38772 ft 508 kts 56°
2026-05-04 13:39 -4.28524 -33.07257 38770 ft 508 kts 56°
2026-05-04 13:40 -4.24600 -33.01365 38771 ft 508 kts 56°
2026-05-04 13:40 -4.20675 -32.95475 38773 ft 508 kts 56°
2026-05-04 13:41 -4.16752 -32.89587 38773 ft 508 kts 56°
2026-05-04 13:41 -4.12831 -32.83705 38770 ft 508 kts 56°
2026-05-04 13:42 -4.06951 -32.74887 38774 ft 507 kts 56°
2026-05-04 13:42 -4.03087 -32.69091 38779 ft 507 kts 56°
2026-05-04 13:43 -3.99169 -32.63219 38785 ft 507 kts 56°
2026-05-04 13:43 -3.95257 -32.57353 38794 ft 506 kts 56°
2026-05-04 13:44 -3.91344 -32.51491 38797 ft 506 kts 56°
2026-05-04 13:44 -3.87234 -32.45784 38800 ft 505 kts 47°
2026-05-04 13:45 -3.84666 -32.43401 39044 ft 498 kts 38°
2026-05-04 13:45 -3.81842 -32.41432 39453 ft 495 kts 30°
2026-05-04 13:45 -3.78756 -32.39905 39615 ft 496 kts 23°
2026-05-04 13:45 -3.75612 -32.38519 40110 ft 490 kts 23°
2026-05-04 13:46 -3.72526 -32.37139 40631 ft 483 kts 23°
2026-05-04 13:46 -3.69484 -32.35777 41002 ft 480 kts 23°
2026-05-04 13:46 -3.63337 -32.33049 40998 ft 484 kts 23°
2026-05-04 13:47 -3.57175 -32.30299 40992 ft 485 kts 23°
2026-05-04 13:47 -3.51041 -32.27572 40983 ft 485 kts 23°
2026-05-04 13:48 -3.44876 -32.24825 40985 ft 485 kts 23°
2026-05-04 13:48 -3.39705 -32.22525 40984 ft 485 kts 23°
2026-05-04 13:49 -3.33585 -32.19801 40981 ft 485 kts 23°
2026-05-04 13:49 -3.27380 -32.17040 40982 ft 485 kts 23°
2026-05-04 13:50 -3.21222 -32.14300 40985 ft 485 kts 23°
2026-05-04 13:50 -3.15090 -32.11572 40984 ft 484 kts 23°
2026-05-04 13:51 -3.08974 -32.08852 40981 ft 484 kts 23°
2026-05-04 13:51 -3.02812 -32.06111 40979 ft 484 kts 23°
2026-05-04 13:52 -2.93581 -32.02007 40985 ft 484 kts 23°
2026-05-04 13:53 -2.87420 -31.99267 40988 ft 484 kts 23°
2026-05-04 13:53 -2.81263 -31.96531 40987 ft 484 kts 23°
2026-05-04 13:54 -2.72027 -31.92425 40984 ft 484 kts 23°
2026-05-04 13:55 -2.62791 -31.88322 40988 ft 484 kts 23°
2026-05-04 13:55 -2.53563 -31.84221 40988 ft 484 kts 23°
2026-05-04 13:56 -2.47410 -31.81487 40989 ft 484 kts 23°
2026-05-04 13:57 -2.38170 -31.77383 40987 ft 484 kts 23°
2026-05-04 13:58 -2.25846 -31.71909 40989 ft 485 kts 24°
2026-05-04 13:58 -2.16594 -31.67801 40984 ft 485 kts 24°
2026-05-04 13:59 -2.10424 -31.65060 40985 ft 485 kts 24°
2026-05-04 14:00 -2.01214 -31.60972 40986 ft 485 kts 24°
2026-05-04 14:00 -1.91924 -31.56848 40987 ft 485 kts 24°
2026-05-04 14:01 -1.85803 -31.54131 40992 ft 485 kts 24°
2026-05-04 14:02 -1.76556 -31.50027 40985 ft 485 kts 24°
2026-05-04 14:02 -1.70390 -31.47291 40990 ft 485 kts 24°
2026-05-04 14:03 -1.64212 -31.44549 40993 ft 486 kts 24°
2026-05-04 14:03 -1.58019 -31.41801 40997 ft 487 kts 24°
2026-05-04 14:04 -1.48720 -31.37675 40998 ft 488 kts 24°
2026-05-04 14:04 -1.42511 -31.34920 41001 ft 488 kts 24°
2026-05-04 14:05 -1.33207 -31.30793 41001 ft 487 kts 24°
2026-05-04 14:06 -1.27015 -31.28046 40997 ft 487 kts 24°
2026-05-04 14:06 -1.20822 -31.25299 41000 ft 487 kts 24°
2026-05-04 14:07 -1.14637 -31.22556 41000 ft 487 kts 24°
2026-05-04 14:07 -1.08447 -31.19811 41001 ft 486 kts 24°
2026-05-04 14:08 -1.02257 -31.17065 41003 ft 487 kts 24°
2026-05-04 14:08 -0.96060 -31.14317 41001 ft 487 kts 24°
2026-05-04 14:09 -0.86764 -31.10195 41005 ft 487 kts 24°
2026-05-04 14:10 -0.77472 -31.06048 40999 ft 488 kts 24°
2026-05-04 14:10 -0.71281 -31.03268 41000 ft 488 kts 24°
2026-05-04 14:11 -0.65090 -31.00496 41001 ft 488 kts 24°
2026-05-04 14:11 -0.55833 -30.96345 41002 ft 489 kts 24°
2026-05-04 14:12 -0.49623 -30.93560 41001 ft 489 kts 24°
2026-05-04 14:13 -0.40325 -30.89392 40999 ft 488 kts 24°
2026-05-04 14:13 -0.34119 -30.86611 40997 ft 489 kts 24°
2026-05-04 14:14 -0.27911 -30.83827 41000 ft 489 kts 24°
2026-05-04 14:14 -0.18593 -30.79650 41000 ft 490 kts 24°
2026-05-04 14:15 -0.06155 -30.74075 40994 ft 490 kts 24°
2026-05-04 14:16 0.03178 -30.69891 40995 ft 491 kts 24°
2026-05-04 14:17 0.12526 -30.65701 40994 ft 491 kts 24°
2026-05-04 14:18 0.21881 -30.61507 40988 ft 492 kts 24°
2026-05-04 14:19 0.34363 -30.55912 40994 ft 492 kts 24°
2026-05-04 14:19 0.40609 -30.53112 40988 ft 492 kts 24°
2026-05-04 14:20 0.46847 -30.50316 40987 ft 491 kts 24°
2026-05-04 14:20 0.53082 -30.47521 40990 ft 491 kts 23°
2026-05-04 14:21 0.62434 -30.43328 40988 ft 492 kts 23°
2026-05-04 14:21 0.68675 -30.40531 40989 ft 491 kts 23°
2026-05-04 14:22 0.74912 -30.37734 40987 ft 491 kts 23°
2026-05-04 14:22 0.81144 -30.34940 40990 ft 491 kts 23°
2026-05-04 14:23 0.90480 -30.30754 40989 ft 490 kts 23°
2026-05-04 14:24 0.96703 -30.27964 40987 ft 490 kts 23°
2026-05-04 14:24 1.02881 -30.25193 40985 ft 490 kts 23°
2026-05-04 14:25 1.09101 -30.22404 40981 ft 490 kts 23°
2026-05-04 14:25 1.18439 -30.18217 40983 ft 491 kts 23°
2026-05-04 14:26 1.24678 -30.15419 40985 ft 492 kts 23°
2026-05-04 14:26 1.30918 -30.12620 40986 ft 492 kts 23°
2026-05-04 14:27 1.37161 -30.09820 40984 ft 492 kts 23°
2026-05-04 14:27 1.43411 -30.07017 40982 ft 492 kts 23°
2026-05-04 14:28 1.49661 -30.04213 40984 ft 493 kts 22°
2026-05-04 14:28 1.55920 -30.01405 40986 ft 493 kts 22°
2026-05-04 14:29 1.68447 -29.95785 40985 ft 494 kts 22°
2026-05-04 14:30 1.74713 -29.92973 40985 ft 494 kts 22°
2026-05-04 14:31 1.84118 -29.88752 40982 ft 494 kts 22°
2026-05-04 14:32 1.96673 -29.83117 40983 ft 495 kts 22°
2026-05-04 14:32 2.02952 -29.80299 40983 ft 494 kts 22°
2026-05-04 14:33 2.09226 -29.77483 40979 ft 494 kts 22°
2026-05-04 14:33 2.15503 -29.74665 40978 ft 494 kts 22°
2026-05-04 14:34 2.20716 -29.72324 40976 ft 494 kts 22°
2026-05-04 14:34 2.28011 -29.69048 40984 ft 494 kts 22°
2026-05-04 14:35 2.34285 -29.66231 40984 ft 494 kts 22°
2026-05-04 14:35 2.39542 -29.63870 40978 ft 494 kts 22°
2026-05-04 14:36 2.45811 -29.61054 40973 ft 494 kts 22°
2026-05-04 14:36 2.52077 -29.58240 40978 ft 493 kts 22°
2026-05-04 14:37 2.58295 -29.55446 40974 ft 493 kts 22°
2026-05-04 14:37 2.64554 -29.52634 40970 ft 493 kts 22°
2026-05-04 14:38 2.70815 -29.49821 40973 ft 494 kts 22°
2026-05-04 14:38 2.77122 -29.46986 40976 ft 494 kts 22°
2026-05-04 14:39 2.83347 -29.44188 40976 ft 494 kts 22°
2026-05-04 14:39 2.89608 -29.41374 40978 ft 493 kts 22°
2026-05-04 14:40 2.99002 -29.37151 40975 ft 493 kts 22°
2026-05-04 14:40 3.05267 -29.34334 40972 ft 494 kts 22°
2026-05-04 14:41 3.11538 -29.31514 40973 ft 494 kts 22°
2026-05-04 14:42 3.24083 -29.25871 40978 ft 494 kts 22°
2026-05-04 14:42 3.30361 -29.23046 40979 ft 494 kts 22°
2026-05-04 14:43 3.36638 -29.20223 40973 ft 495 kts 22°
2026-05-04 14:43 3.42917 -29.17397 40970 ft 495 kts 22°
2026-05-04 14:44 3.49196 -29.14570 40972 ft 495 kts 22°
2026-05-04 14:44 3.55480 -29.11742 40972 ft 495 kts 22°
2026-05-04 14:45 3.61757 -29.08915 40977 ft 495 kts 22°
2026-05-04 14:45 3.68036 -29.06088 40975 ft 495 kts 22°
2026-05-04 14:46 3.74316 -29.03260 40979 ft 495 kts 22°
2026-05-04 14:46 3.80595 -29.00431 40974 ft 495 kts 22°
2026-05-04 14:47 3.86875 -28.97602 40976 ft 495 kts 22°
2026-05-04 14:47 3.93161 -28.94770 40973 ft 496 kts 22°
2026-05-04 14:48 3.99456 -28.91933 40978 ft 496 kts 22°
2026-05-04 14:48 4.05740 -28.89100 40979 ft 495 kts 22°
2026-05-04 14:49 4.12029 -28.86265 40980 ft 495 kts 22°
2026-05-04 14:49 4.18308 -28.83434 40981 ft 495 kts 22°
2026-05-04 14:50 4.24589 -28.80601 40968 ft 495 kts 22°
2026-05-04 14:50 4.30872 -28.77767 40974 ft 495 kts 22°
2026-05-04 14:51 4.37152 -28.74934 40980 ft 495 kts 22°
2026-05-04 14:51 4.43435 -28.72100 40971 ft 496 kts 22°
2026-05-04 14:52 4.49681 -28.69280 40977 ft 496 kts 22°
2026-05-04 14:52 4.55964 -28.66444 40974 ft 495 kts 22°
2026-05-04 14:53 4.62247 -28.63607 40976 ft 495 kts 22°
2026-05-04 14:53 4.68531 -28.60769 40984 ft 495 kts 22°
2026-05-04 14:54 4.74819 -28.57930 40970 ft 496 kts 22°
2026-05-04 14:54 4.81111 -28.55087 40972 ft 496 kts 22°
2026-05-04 14:55 4.87407 -28.52243 40979 ft 496 kts 22°
2026-05-04 14:55 4.93699 -28.49399 40979 ft 496 kts 22°
2026-05-04 14:56 4.99985 -28.46557 40976 ft 496 kts 22°
2026-05-04 14:56 5.06278 -28.43712 40978 ft 496 kts 22°
2026-05-04 14:57 5.12570 -28.40867 40975 ft 496 kts 22°
2026-05-04 14:57 5.18869 -28.38018 40972 ft 496 kts 22°
2026-05-04 14:58 5.25166 -28.35169 40971 ft 497 kts 22°
2026-05-04 14:58 5.31457 -28.32322 40979 ft 496 kts 22°
2026-05-04 14:59 5.37755 -28.29471 40975 ft 496 kts 22°
2026-05-04 15:00 5.47192 -28.25199 40972 ft 496 kts 22°
2026-05-04 15:00 5.53487 -28.22348 40978 ft 496 kts 22°
2026-05-04 15:01 5.62929 -28.18070 40975 ft 496 kts 22°
2026-05-04 15:01 5.69219 -28.15220 40968 ft 496 kts 22°
2026-05-04 15:02 5.75474 -28.12385 40966 ft 496 kts 22°
2026-05-04 15:02 5.81764 -28.09533 40969 ft 496 kts 22°
2026-05-04 15:03 5.88053 -28.06681 40967 ft 496 kts 22°
2026-05-04 15:03 5.94341 -28.03830 40979 ft 496 kts 22°
2026-05-04 15:04 6.00628 -28.00977 40977 ft 496 kts 22°
2026-05-04 15:04 6.06913 -27.98125 40967 ft 496 kts 22°
2026-05-04 15:05 6.13212 -27.95265 40968 ft 496 kts 22°
2026-05-04 15:05 6.19507 -27.92407 40975 ft 497 kts 22°
2026-05-04 15:06 6.25812 -27.89543 40974 ft 498 kts 22°
2026-05-04 15:07 6.35279 -27.85242 40970 ft 498 kts 22°
2026-05-04 15:07 6.41594 -27.82372 40974 ft 498 kts 22°
2026-05-04 15:08 6.47909 -27.79501 40969 ft 498 kts 22°
2026-05-04 15:08 6.54185 -27.76647 40967 ft 498 kts 22°
2026-05-04 15:09 6.60504 -27.73773 40981 ft 498 kts 22°
2026-05-04 15:09 6.66817 -27.70901 40969 ft 498 kts 22°
2026-05-04 15:10 6.76293 -27.66588 40970 ft 499 kts 22°
2026-05-04 15:11 6.85779 -27.62268 40969 ft 499 kts 22°
2026-05-04 15:11 6.92106 -27.59387 40970 ft 499 kts 22°
2026-05-04 15:12 6.98436 -27.56503 40973 ft 499 kts 22°
2026-05-04 15:12 7.04765 -27.53619 40973 ft 499 kts 22°
2026-05-04 15:13 7.11053 -27.50752 40970 ft 500 kts 22°
2026-05-04 15:13 7.17385 -27.47865 40969 ft 499 kts 22°
2026-05-04 15:14 7.23714 -27.44978 40974 ft 499 kts 21°
2026-05-04 15:14 7.30039 -27.42093 40970 ft 499 kts 21°
2026-05-04 15:15 7.36365 -27.39206 40972 ft 499 kts 21°
2026-05-04 15:15 7.42693 -27.36317 40972 ft 499 kts 21°
2026-05-04 15:16 7.52177 -27.31985 40970 ft 499 kts 21°
2026-05-04 15:17 7.61672 -27.27647 40968 ft 499 kts 21°
2026-05-04 15:17 7.71162 -27.23308 40970 ft 499 kts 21°
2026-05-04 15:18 7.77488 -27.20415 40972 ft 499 kts 21°
2026-05-04 15:19 7.86964 -27.16079 40968 ft 498 kts 21°
2026-05-04 15:19 7.96439 -27.11741 40970 ft 499 kts 21°
2026-05-04 15:20 8.02716 -27.08867 40967 ft 499 kts 21°
2026-05-04 15:20 8.09034 -27.05973 40967 ft 499 kts 21°
2026-05-04 15:21 8.15359 -27.03074 40972 ft 499 kts 21°
2026-05-04 15:22 8.24858 -26.98719 40972 ft 500 kts 21°
2026-05-04 15:22 8.33298 -26.94848 40969 ft 500 kts 21°
2026-05-04 15:23 8.39631 -26.91940 40970 ft 500 kts 21°
2026-05-04 15:23 8.45966 -26.89033 40969 ft 500 kts 21°
2026-05-04 15:24 8.58630 -26.83216 40971 ft 500 kts 21°
2026-05-04 15:25 8.64968 -26.80299 40972 ft 500 kts 21°
2026-05-04 15:26 8.74477 -26.75924 40972 ft 501 kts 21°
2026-05-04 15:26 8.83986 -26.71545 40967 ft 501 kts 21°
2026-05-04 15:27 8.93488 -26.67167 40970 ft 500 kts 21°
2026-05-04 15:28 9.03004 -26.62781 40969 ft 501 kts 21°
2026-05-04 15:29 9.12528 -26.58388 40971 ft 502 kts 21°
2026-05-04 15:30 9.34809 -26.48100 40972 ft 503 kts 21°
2026-05-04 15:31 9.44358 -26.43687 40969 ft 503 kts 21°
2026-05-04 15:32 9.60228 -26.36346 40969 ft 503 kts 21°
2026-05-04 15:34 9.76167 -26.28966 40971 ft 504 kts 21°
2026-05-04 15:34 9.85742 -26.24529 40967 ft 505 kts 21°
2026-05-04 15:35 9.95323 -26.20086 40970 ft 505 kts 21°
2026-05-04 15:36 10.04912 -26.15637 40971 ft 506 kts 21°
2026-05-04 15:36 10.11308 -26.12667 40967 ft 506 kts 21°
2026-05-04 15:37 10.17713 -26.09692 40968 ft 507 kts 21°
2026-05-04 15:37 10.24128 -26.06711 40969 ft 507 kts 21°
2026-05-04 15:38 10.30548 -26.03726 40968 ft 508 kts 21°
2026-05-04 15:38 10.36989 -26.00731 40969 ft 509 kts 21°
2026-05-04 15:39 10.43426 -25.97735 40967 ft 509 kts 21°
2026-05-04 15:40 10.53102 -25.93231 40968 ft 510 kts 21°
2026-05-04 15:40 10.59566 -25.90219 40970 ft 511 kts 21°
2026-05-04 15:41 10.66032 -25.87205 40972 ft 511 kts 21°
2026-05-04 15:41 10.72500 -25.84190 40969 ft 512 kts 20°
2026-05-04 15:42 10.78984 -25.81165 40967 ft 513 kts 20°
2026-05-04 15:42 10.85472 -25.78137 40968 ft 514 kts 20°
2026-05-04 15:43 10.91971 -25.75102 40969 ft 514 kts 20°
2026-05-04 15:43 10.98474 -25.72064 40967 ft 515 kts 20°
2026-05-04 15:44 11.04942 -25.69041 40969 ft 515 kts 20°
2026-05-04 15:44 11.11454 -25.65996 40970 ft 515 kts 20°
2026-05-04 15:45 11.17966 -25.62949 40966 ft 516 kts 20°
2026-05-04 15:45 11.24483 -25.59898 40968 ft 516 kts 20°
2026-05-04 15:46 11.31002 -25.56845 40966 ft 515 kts 20°
2026-05-04 15:46 11.37514 -25.53794 40966 ft 515 kts 20°
2026-05-04 15:47 11.44033 -25.50738 40968 ft 515 kts 20°
2026-05-04 15:47 11.50551 -25.47680 40968 ft 516 kts 20°
2026-05-04 15:48 11.57073 -25.44620 40969 ft 516 kts 20°
2026-05-04 15:48 11.66864 -25.40022 40967 ft 516 kts 20°
2026-05-04 15:49 11.73390 -25.36956 40969 ft 517 kts 20°
2026-05-04 15:49 11.79920 -25.33885 40967 ft 517 kts 20°
2026-05-04 15:50 11.86456 -25.30811 40967 ft 518 kts 20°
2026-05-04 15:50 11.93001 -25.27731 40970 ft 518 kts 20°
2026-05-04 15:51 11.99553 -25.24646 40968 ft 519 kts 20°
2026-05-04 15:51 12.06072 -25.21574 40971 ft 520 kts 19°
2026-05-04 15:52 12.12642 -25.18477 40969 ft 520 kts 19°
2026-05-04 15:52 12.19214 -25.15377 40962 ft 520 kts 19°
2026-05-04 15:53 12.25790 -25.12274 40962 ft 519 kts 19°
2026-05-04 15:53 12.32356 -25.09174 40966 ft 520 kts 19°
2026-05-04 15:54 12.38919 -25.06073 40964 ft 519 kts 19°
2026-05-04 15:54 12.45479 -25.02972 40967 ft 519 kts 19°
2026-05-04 15:55 12.52043 -24.99868 40963 ft 520 kts 19°
2026-05-04 15:55 12.58597 -24.96766 40965 ft 519 kts 19°
2026-05-04 15:56 12.65157 -24.93661 40964 ft 519 kts 19°
2026-05-04 15:56 12.71708 -24.90556 40961 ft 519 kts 19°
2026-05-04 15:57 12.78261 -24.87451 40969 ft 519 kts 19°
2026-05-04 15:57 12.84804 -24.84347 40962 ft 519 kts 19°
2026-05-04 15:58 12.91360 -24.81236 40965 ft 519 kts 19°
2026-05-04 15:58 12.97908 -24.78126 40968 ft 519 kts 18°
2026-05-04 15:59 13.04462 -24.75012 40965 ft 520 kts 18°
2026-05-04 15:59 13.11026 -24.71892 40961 ft 520 kts 18°
2026-05-04 16:00 13.17596 -24.68766 40963 ft 520 kts 18°
2026-05-04 16:00 13.24162 -24.65642 40960 ft 521 kts 18°
2026-05-04 16:01 13.30730 -24.62513 40959 ft 520 kts 18°
2026-05-04 16:01 13.37265 -24.59398 40954 ft 521 kts 18°
2026-05-04 16:02 13.43860 -24.56250 40963 ft 523 kts 18°
2026-05-04 16:03 13.53754 -24.51528 40959 ft 522 kts 18°
2026-05-04 16:03 13.60347 -24.48387 40960 ft 522 kts 18°
2026-05-04 16:04 13.66929 -24.45237 40961 ft 521 kts 18°
2026-05-04 16:04 13.76788 -24.40526 40960 ft 521 kts 18°
2026-05-04 16:05 13.83357 -24.37378 40965 ft 520 kts 18°
2026-05-04 16:06 13.92840 -24.31821 40956 ft 534 kts 33°
2026-05-04 16:07 14.04422 -24.22284 40962 ft 535 kts 33°
2026-05-04 16:08 14.15110 -24.13477 40963 ft 535 kts 33°
2026-05-04 16:09 14.30555 -24.00730 40957 ft 534 kts 33°
2026-05-04 16:10 14.41190 -23.91943 40959 ft 534 kts 33°
2026-05-04 16:11 14.52741 -23.82378 40901 ft 508 kts 33°
2026-05-04 16:12 14.60536 -23.75927 36975 ft 455 kts 32°
2026-05-04 16:12 14.67379 -23.70345 38944 ft 400 kts 24°
2026-05-04 16:13 14.72187 -23.68304 40188 ft 354 kts
2026-05-04 16:13 14.76848 -23.66868 40943 ft 360 kts 11°
2026-05-04 16:14 14.81596 -23.64628 40405 ft 397 kts 12°
2026-05-04 16:14 14.87101 -23.62411 39012 ft 449 kts 13°
2026-05-04 16:15 14.95900 -23.58579 36745 ft 457 kts 13°
2026-05-04 16:16 15.01781 -23.56102 35279 ft 457 kts 15°
2026-05-04 16:16 15.10585 -23.52339 33255 ft 449 kts 17°
2026-05-04 16:17 15.16306 -23.49895 32075 ft 441 kts 17°
2026-05-04 16:18 15.24753 -23.46278 30338 ft 435 kts 19°
2026-05-04 16:18 15.27534 -23.45090 29727 ft 432 kts 20°
2026-05-04 16:19 15.35688 -23.41604 28046 ft 414 kts 20°
2026-05-04 16:19 15.40951 -23.39351 26968 ft 404 kts 20°
2026-05-04 16:20 15.48608 -23.36071 25394 ft 390 kts 20°
2026-05-04 16:20 15.53561 -23.33948 24374 ft 380 kts 21°
2026-05-04 16:21 15.60759 -23.30861 22847 ft 366 kts 21°
2026-05-04 16:22 15.65413 -23.28864 21887 ft 360 kts 21°
2026-05-04 16:22 15.72329 -23.25894 20472 ft 355 kts 21°
2026-05-04 16:23 15.79081 -23.22992 19085 ft 347 kts 22°
2026-05-04 16:24 15.87827 -23.19230 17245 ft 333 kts 22°
2026-05-04 16:25 15.92084 -23.17398 16374 ft 329 kts 22°
2026-05-04 16:26 16.00447 -23.13796 14661 ft 321 kts 22°
2026-05-04 16:26 16.06565 -23.11161 13376 ft 314 kts 22°
2026-05-04 16:27 16.10576 -23.09429 12548 ft 311 kts 23°
2026-05-04 16:28 16.16548 -23.06852 11326 ft 309 kts 24°
2026-05-04 16:28 16.22474 -23.04294 10112 ft 305 kts 24°
2026-05-04 16:29 16.30202 -23.00955 8491 ft 296 kts 24°
2026-05-04 16:30 16.35854 -22.98511 7334 ft 289 kts 23°
2026-05-04 16:31 16.39526 -22.96920 6573 ft 284 kts 23°
2026-05-04 16:31 16.44911 -22.94589 5445 ft 274 kts 22°
2026-05-04 16:32 16.48531 -22.90324 4340 ft 267 kts 54°
2026-05-04 16:33 16.51133 -22.87700 3618 ft 261 kts 28°
2026-05-04 16:33 16.54635 -22.87298 2878 ft 261 kts 345°
2026-05-04 16:34 16.57239 -22.89617 2123 ft 225 kts 307°
2026-05-04 16:34 16.58081 -22.90830 1862 ft 190 kts 311°
2026-05-04 16:35 16.60303 -22.93503 1465 ft 160 kts 314°
2026-05-04 16:35 16.63458 -22.94336 1478 ft 153 kts 349°
2026-05-04 16:36 16.64477 -22.94584 1479 ft 159 kts 344°
2026-05-04 16:36 16.66524 -22.94810 1337 ft 144 kts 358°
2026-05-04 16:37 16.68558 -22.94865 955 ft 142 kts
2026-05-04 16:37 16.69559 -22.94861 772 ft 143 kts
2026-05-04 16:37 16.71359 -22.94880 421 ft 120 kts
2026-05-04 16:38 16.72819 -22.94890 192 ft 90 kts
2026-05-04 16:39 16.73807 -22.94899 183 ft 34 kts
2026-05-04 16:39 16.74223 -22.94891 181 ft 16 kts 47°
2026-05-04 16:40 16.74293 -22.94702 181 ft 5 kts 165°
2026-05-04 16:40 16.74126 -22.94699 183 ft 20 kts 180°
2026-05-04 16:41 16.73741 -22.94697 184 ft 25 kts 180°
2026-05-04 16:41 16.73615 -22.94516 184 ft 0 kts 90°